owner,sensor,date,latitude,longitude,vertical_datum,sea_water_practical_salinity,qcFlag 
SCCF RECON,ioos:station:SCCF:56:1,2017-03-01T00:00:00Z,26.4645,-82.1044,1.36,32.3,1111122 
SCCF RECON,ioos:station:SCCF:56:1,2017-03-01T01:00:00Z,26.4645,-82.1044,1.27,32.38,1111122 
SCCF RECON,ioos:station:SCCF:56:1,2017-03-01T02:00:00Z,26.4645,-82.1044,1.22,32.48,1111122 
SCCF RECON,ioos:station:SCCF:56:1,2017-03-01T03:00:00Z,26.4645,-82.1044,1.29,32.45,1111122 
SCCF RECON,ioos:station:SCCF:56:1,2017-03-01T04:00:00Z,26.4645,-82.1044,1.47,32.14,1111122 
SCCF RECON,ioos:station:SCCF:56:1,2017-03-01T05:00:00Z,26.4645,-82.1044,1.64,32.21,1111122 
SCCF RECON,ioos:station:SCCF:56:1,2017-03-01T06:00:00Z,26.4645,-82.1044,1.75,32.23,1111122 
SCCF RECON,ioos:station:SCCF:56:1,2017-03-01T07:00:00Z,26.4645,-82.1044,1.83,32.25,1111122 
SCCF RECON,ioos:station:SCCF:56:1,2017-03-01T08:00:00Z,26.4645,-82.1044,1.858,32.28,1111122 
SCCF RECON,ioos:station:SCCF:56:1,2017-03-01T09:00:00Z,26.4645,-82.1044,1.778,32.24,1111122 
SCCF RECON,ioos:station:SCCF:56:1,2017-03-01T10:00:00Z,26.4645,-82.1044,1.641,32.28,1111122 
SCCF RECON,ioos:station:SCCF:56:1,2017-03-01T11:00:00Z,26.4645,-82.1044,1.53,32.33,1111122 
SCCF RECON,ioos:station:SCCF:56:1,2017-03-01T12:00:00Z,26.4645,-82.1044,1.41,32.38,1111122 
SCCF RECON,ioos:station:SCCF:56:1,2017-03-01T13:00:00Z,26.4645,-82.1044,1.3,32.42,1111122 
SCCF RECON,ioos:station:SCCF:56:1,2017-03-01T14:00:00Z,26.4645,-82.1044,1.21,32.46,1111122 
SCCF RECON,ioos:station:SCCF:56:1,2017-03-01T15:00:00Z,26.4645,-82.1044,1.22,32.51,1111122 
SCCF RECON,ioos:station:SCCF:56:1,2017-03-01T16:00:00Z,26.4645,-82.1044,1.38,32.46,1111122 
SCCF RECON,ioos:station:SCCF:56:1,2017-03-01T17:00:00Z,26.4645,-82.1044,1.548,32.35,1111122 
SCCF RECON,ioos:station:SCCF:56:1,2017-03-01T18:00:00Z,26.4645,-82.1044,1.67,32.42,1111122 
SCCF RECON,ioos:station:SCCF:56:1,2017-03-01T19:00:00Z,26.4645,-82.1044,1.759,32.49,1111122 
SCCF RECON,ioos:station:SCCF:56:1,2017-03-01T20:00:00Z,26.4645,-82.1044,1.785,32.5,1111122 
SCCF RECON,ioos:station:SCCF:56:1,2017-03-01T21:00:00Z,26.4645,-82.1044,1.74,32.24,1111122 
SCCF RECON,ioos:station:SCCF:56:1,2017-03-01T22:00:00Z,26.4645,-82.1044,1.63,32.36,1111122 
SCCF RECON,ioos:station:SCCF:56:1,2017-03-01T23:00:00Z,26.4645,-82.1044,1.5,32.41,1111122 
SCCF RECON,ioos:station:SCCF:56:1,2017-03-02T00:00:00Z,26.4645,-82.1044,1.39,32.43,1111122 
SCCF RECON,ioos:station:SCCF:56:1,2017-03-02T01:00:00Z,26.4645,-82.1044,1.29,32.47,1111122 
SCCF RECON,ioos:station:SCCF:56:1,2017-03-02T02:00:00Z,26.4645,-82.1044,1.19,32.51,1111122 
SCCF RECON,ioos:station:SCCF:56:1,2017-03-02T03:00:00Z,26.4645,-82.1044,1.14,32.58,1111122 
SCCF RECON,ioos:station:SCCF:56:1,2017-03-02T04:00:00Z,26.4645,-82.1044,1.241,32.54,1111122 
SCCF RECON,ioos:station:SCCF:56:1,2017-03-02T05:00:00Z,26.4645,-82.1044,1.44,32.58,1111122 
SCCF RECON,ioos:station:SCCF:56:1,2017-03-02T06:00:00Z,26.4645,-82.1044,1.59,32.64,1111122 
SCCF RECON,ioos:station:SCCF:56:1,2017-03-02T07:00:00Z,26.4645,-82.1044,1.68,32.64,1111122 
SCCF RECON,ioos:station:SCCF:56:1,2017-03-02T08:00:00Z,26.4645,-82.1044,1.74,32.64,1111122 
SCCF RECON,ioos:station:SCCF:56:1,2017-03-02T09:00:00Z,26.4645,-82.1044,1.757,32.63,1111122 
SCCF RECON,ioos:station:SCCF:56:1,2017-03-02T10:00:00Z,26.4645,-82.1044,1.687,32.59,1111122 
SCCF RECON,ioos:station:SCCF:56:1,2017-03-02T11:00:00Z,26.4645,-82.1044,1.58,32.65,1111122 
SCCF RECON,ioos:station:SCCF:56:1,2017-03-02T12:00:00Z,26.4645,-82.1044,1.478,32.65,1111122 
SCCF RECON,ioos:station:SCCF:56:1,2017-03-02T13:00:00Z,26.4645,-82.1044,1.38,32.65,1111122 
SCCF RECON,ioos:station:SCCF:56:1,2017-03-02T14:00:00Z,26.4645,-82.1044,1.303,32.67,1111122 
SCCF RECON,ioos:station:SCCF:56:1,2017-03-02T15:00:00Z,26.4645,-82.1044,1.26,32.75,1111122 
SCCF RECON,ioos:station:SCCF:56:1,2017-03-02T16:00:00Z,26.4645,-82.1044,1.36,32.75,1111122 
SCCF RECON,ioos:station:SCCF:56:1,2017-03-02T17:00:00Z,26.4645,-82.1044,1.518,32.71,1111122 
SCCF RECON,ioos:station:SCCF:56:1,2017-03-02T18:00:00Z,26.4645,-82.1044,1.651,32.93,1111122 
SCCF RECON,ioos:station:SCCF:56:1,2017-03-02T19:00:00Z,26.4645,-82.1044,1.758,32.98,1111122 
SCCF RECON,ioos:station:SCCF:56:1,2017-03-02T20:00:00Z,26.4645,-82.1044,1.821,32.99,1111122 
SCCF RECON,ioos:station:SCCF:56:1,2017-03-02T21:00:00Z,26.4645,-82.1044,1.814,32.99,1111122 
SCCF RECON,ioos:station:SCCF:56:1,2017-03-02T22:00:00Z,26.4645,-82.1044,1.76,32.83,1111122 
SCCF RECON,ioos:station:SCCF:56:1,2017-03-02T23:00:00Z,26.4645,-82.1044,1.64,32.94,1111122 
SCCF RECON,ioos:station:SCCF:56:1,2017-03-03T00:00:00Z,26.4645,-82.1044,1.52,32.89,1111122 
SCCF RECON,ioos:station:SCCF:56:1,2017-03-03T01:00:00Z,26.4645,-82.1044,1.42,32.84,1111122 
SCCF RECON,ioos:station:SCCF:56:1,2017-03-03T02:00:00Z,26.4645,-82.1044,1.315,32.83,1111122 
SCCF RECON,ioos:station:SCCF:56:1,2017-03-03T03:00:00Z,26.4645,-82.1044,1.21,32.83,1111122 
SCCF RECON,ioos:station:SCCF:56:1,2017-03-03T04:00:00Z,26.4645,-82.1044,1.131,32.86,1111122 
SCCF RECON,ioos:station:SCCF:56:1,2017-03-03T05:00:00Z,26.4645,-82.1044,1.16,32.9,1111122 
SCCF RECON,ioos:station:SCCF:56:1,2017-03-03T06:00:00Z,26.4645,-82.1044,1.32,32.78,1111122 
SCCF RECON,ioos:station:SCCF:56:1,2017-03-03T07:00:00Z,26.4645,-82.1044,1.47,32.75,1111122 
SCCF RECON,ioos:station:SCCF:56:1,2017-03-03T08:00:00Z,26.4645,-82.1044,1.557,32.74,1111122 
SCCF RECON,ioos:station:SCCF:56:1,2017-03-03T09:00:00Z,26.4645,-82.1044,1.616,32.77,1111122 
SCCF RECON,ioos:station:SCCF:56:1,2017-03-03T10:00:00Z,26.4645,-82.1044,1.581,32.86,1111122 
SCCF RECON,ioos:station:SCCF:56:1,2017-03-03T11:00:00Z,26.4645,-82.1044,1.504,32.88,1111122 
SCCF RECON,ioos:station:SCCF:56:1,2017-03-03T12:00:00Z,26.4645,-82.1044,1.42,32.9,1111122 
SCCF RECON,ioos:station:SCCF:56:1,2017-03-03T13:00:00Z,26.4645,-82.1044,1.35,32.92,1111122 
SCCF RECON,ioos:station:SCCF:56:1,2017-03-03T14:00:00Z,26.4645,-82.1044,1.299,32.96,1111122 
SCCF RECON,ioos:station:SCCF:56:1,2017-03-03T15:00:00Z,26.4645,-82.1044,1.226,33.02,1111122 
SCCF RECON,ioos:station:SCCF:56:1,2017-03-03T16:00:00Z,26.4645,-82.1044,1.182,33.11,1111122 
SCCF RECON,ioos:station:SCCF:56:1,2017-03-03T17:00:00Z,26.4645,-82.1044,1.226,33.07,1111122 
SCCF RECON,ioos:station:SCCF:56:1,2017-03-03T18:00:00Z,26.4645,-82.1044,1.349,33.01,1111122 
SCCF RECON,ioos:station:SCCF:56:1,2017-03-03T19:00:00Z,26.4645,-82.1044,1.469,33.02,1111122 
SCCF RECON,ioos:station:SCCF:56:1,2017-03-03T20:00:00Z,26.4645,-82.1044,1.605,33.0,1111122 
SCCF RECON,ioos:station:SCCF:56:1,2017-03-03T21:00:00Z,26.4645,-82.1044,1.665,33.06,1111122 
SCCF RECON,ioos:station:SCCF:56:1,2017-03-03T22:00:00Z,26.4645,-82.1044,1.711,33.03,1111122 
SCCF RECON,ioos:station:SCCF:56:1,2017-03-03T23:00:00Z,26.4645,-82.1044,1.689,33.03,1111122 
SCCF RECON,ioos:station:SCCF:56:1,2017-03-04T00:00:00Z,26.4645,-82.1044,1.597,33.07,1111122 
SCCF RECON,ioos:station:SCCF:56:1,2017-03-04T01:00:00Z,26.4645,-82.1044,1.477,33.11,1111122 
SCCF RECON,ioos:station:SCCF:56:1,2017-03-04T02:00:00Z,26.4645,-82.1044,1.35,33.13,1111122 
SCCF RECON,ioos:station:SCCF:56:1,2017-03-04T03:00:00Z,26.4645,-82.1044,1.218,33.18,1111122 
SCCF RECON,ioos:station:SCCF:56:1,2017-03-04T04:00:00Z,26.4645,-82.1044,1.108,33.28,1111122 
SCCF RECON,ioos:station:SCCF:56:1,2017-03-04T05:00:00Z,26.4645,-82.1044,1.029,33.4,1111122 
SCCF RECON,ioos:station:SCCF:56:1,2017-03-04T06:00:00Z,26.4645,-82.1044,0.998,33.47,1111122 
SCCF RECON,ioos:station:SCCF:56:1,2017-03-04T07:00:00Z,26.4645,-82.1044,1.076,33.47,1111122 
SCCF RECON,ioos:station:SCCF:56:1,2017-03-04T08:00:00Z,26.4645,-82.1044,1.18,33.06,1111122 
SCCF RECON,ioos:station:SCCF:56:1,2017-03-04T09:00:00Z,26.4645,-82.1044,1.29,33.07,1111122 
SCCF RECON,ioos:station:SCCF:56:1,2017-03-04T10:00:00Z,26.4645,-82.1044,1.366,32.92,1111122 
SCCF RECON,ioos:station:SCCF:56:1,2017-03-04T11:00:00Z,26.4645,-82.1044,1.391,33.0,1111122 
SCCF RECON,ioos:station:SCCF:56:1,2017-03-04T12:00:00Z,26.4645,-82.1044,1.385,33.1,1111122 
SCCF RECON,ioos:station:SCCF:56:1,2017-03-04T13:00:00Z,26.4645,-82.1044,1.32,33.1,1111122 
SCCF RECON,ioos:station:SCCF:56:1,2017-03-04T14:00:00Z,26.4645,-82.1044,1.247,33.2,1111122 
SCCF RECON,ioos:station:SCCF:56:1,2017-03-04T15:00:00Z,26.4645,-82.1044,1.199,33.32,1111122 
SCCF RECON,ioos:station:SCCF:56:1,2017-03-04T16:00:00Z,26.4645,-82.1044,1.17,33.45,1111122 
SCCF RECON,ioos:station:SCCF:56:1,2017-03-04T17:00:00Z,26.4645,-82.1044,1.181,33.42,1111122 
SCCF RECON,ioos:station:SCCF:56:1,2017-03-04T18:00:00Z,26.4645,-82.1044,1.27,33.23,1111122 
SCCF RECON,ioos:station:SCCF:56:1,2017-03-04T19:00:00Z,26.4645,-82.1044,1.37,33.28,1111122 
SCCF RECON,ioos:station:SCCF:56:1,2017-03-04T20:00:00Z,26.4645,-82.1044,1.48,33.31,1111122 
SCCF RECON,ioos:station:SCCF:56:1,2017-03-04T21:00:00Z,26.4645,-82.1044,1.57,33.3,1111122 
SCCF RECON,ioos:station:SCCF:56:1,2017-03-04T22:00:00Z,26.4645,-82.1044,1.629,33.31,1111122 
SCCF RECON,ioos:station:SCCF:56:1,2017-03-04T23:00:00Z,26.4645,-82.1044,1.631,33.27,1111122 
SCCF RECON,ioos:station:SCCF:56:1,2017-03-05T00:00:00Z,26.4645,-82.1044,1.571,33.28,1111122 
SCCF RECON,ioos:station:SCCF:56:1,2017-03-05T01:00:00Z,26.4645,-82.1044,1.47,33.34,1111122 
SCCF RECON,ioos:station:SCCF:56:1,2017-03-05T02:00:00Z,26.4645,-82.1044,1.37,33.43,1111122 
SCCF RECON,ioos:station:SCCF:56:1,2017-03-05T03:00:00Z,26.4645,-82.1044,1.26,33.47,1111122 
SCCF RECON,ioos:station:SCCF:56:1,2017-03-05T04:00:00Z,26.4645,-82.1044,1.154,33.57,1111122 
SCCF RECON,ioos:station:SCCF:56:1,2017-03-05T05:00:00Z,26.4645,-82.1044,1.05,33.73,1111122 
SCCF RECON,ioos:station:SCCF:56:1,2017-03-05T06:00:00Z,26.4645,-82.1044,1.0,33.78,1111122 
SCCF RECON,ioos:station:SCCF:56:1,2017-03-05T07:00:00Z,26.4645,-82.1044,1.004,33.79,1111122 
SCCF RECON,ioos:station:SCCF:56:1,2017-03-05T08:00:00Z,26.4645,-82.1044,1.11,33.12,1111122 
SCCF RECON,ioos:station:SCCF:56:1,2017-03-05T09:00:00Z,26.4645,-82.1044,1.256,32.91,1111122 
SCCF RECON,ioos:station:SCCF:56:1,2017-03-05T10:00:00Z,26.4645,-82.1044,1.37,32.8,1111122 
SCCF RECON,ioos:station:SCCF:56:1,2017-03-05T11:00:00Z,26.4645,-82.1044,1.468,32.7,1111122 
SCCF RECON,ioos:station:SCCF:56:1,2017-03-05T12:00:00Z,26.4645,-82.1044,1.54,32.69,1111122 
SCCF RECON,ioos:station:SCCF:56:1,2017-03-05T13:00:00Z,26.4645,-82.1044,1.548,32.63,1111122 
SCCF RECON,ioos:station:SCCF:56:1,2017-03-05T14:00:00Z,26.4645,-82.1044,1.515,32.79,1111122 
SCCF RECON,ioos:station:SCCF:56:1,2017-03-05T15:00:00Z,26.4645,-82.1044,1.462,32.73,1111122 
SCCF RECON,ioos:station:SCCF:56:1,2017-03-05T16:00:00Z,26.4645,-82.1044,1.399,32.82,1111122 
SCCF RECON,ioos:station:SCCF:56:1,2017-03-05T17:00:00Z,26.4645,-82.1044,1.381,32.94,1111122 
SCCF RECON,ioos:station:SCCF:56:1,2017-03-05T18:00:00Z,26.4645,-82.1044,1.452,32.94,1111122 
SCCF RECON,ioos:station:SCCF:56:1,2017-03-05T19:00:00Z,26.4645,-82.1044,1.518,32.9,1111122 
SCCF RECON,ioos:station:SCCF:56:1,2017-03-05T20:00:00Z,26.4645,-82.1044,1.58,32.65,1111122 
SCCF RECON,ioos:station:SCCF:56:1,2017-03-05T21:00:00Z,26.4645,-82.1044,1.624,32.49,1111122 
SCCF RECON,ioos:station:SCCF:56:1,2017-03-05T22:00:00Z,26.4645,-82.1044,1.662,32.45,1111122 
SCCF RECON,ioos:station:SCCF:56:1,2017-03-05T23:00:00Z,26.4645,-82.1044,1.68,32.83,1111122 
SCCF RECON,ioos:station:SCCF:56:1,2017-03-06T00:00:00Z,26.4645,-82.1044,1.693,32.77,1111122 
SCCF RECON,ioos:station:SCCF:56:1,2017-03-06T01:00:00Z,26.4645,-82.1044,1.65,32.72,1111122 
SCCF RECON,ioos:station:SCCF:56:1,2017-03-06T02:00:00Z,26.4645,-82.1044,1.579,32.73,1111122 
SCCF RECON,ioos:station:SCCF:56:1,2017-03-06T03:00:00Z,26.4645,-82.1044,1.48,33.01,1111122 
SCCF RECON,ioos:station:SCCF:56:1,2017-03-06T04:00:00Z,26.4645,-82.1044,1.359,33.12,1111122 
SCCF RECON,ioos:station:SCCF:56:1,2017-03-06T05:00:00Z,26.4645,-82.1044,1.258,33.22,1111122 
SCCF RECON,ioos:station:SCCF:56:1,2017-03-06T06:00:00Z,26.4645,-82.1044,1.158,33.4,1111122 
SCCF RECON,ioos:station:SCCF:56:1,2017-03-06T07:00:00Z,26.4645,-82.1044,1.07,33.51,1111122 
SCCF RECON,ioos:station:SCCF:56:1,2017-03-06T08:00:00Z,26.4645,-82.1044,1.062,33.56,1111122 
SCCF RECON,ioos:station:SCCF:56:1,2017-03-06T09:00:00Z,26.4645,-82.1044,1.181,32.23,1111122 
SCCF RECON,ioos:station:SCCF:56:1,2017-03-06T10:00:00Z,26.4645,-82.1044,1.3,31.73,1111122 
SCCF RECON,ioos:station:SCCF:56:1,2017-03-06T11:00:00Z,26.4645,-82.1044,1.4,31.5,1111122 
SCCF RECON,ioos:station:SCCF:56:1,2017-03-06T12:00:00Z,26.4645,-82.1044,1.462,31.48,1111122 
SCCF RECON,ioos:station:SCCF:56:1,2017-03-06T13:00:00Z,26.4645,-82.1044,1.539,31.54,1111122 
SCCF RECON,ioos:station:SCCF:56:1,2017-03-06T14:00:00Z,26.4645,-82.1044,1.55,31.81,1111122 
SCCF RECON,ioos:station:SCCF:56:1,2017-03-06T15:00:00Z,26.4645,-82.1044,1.563,31.76,1111122 
SCCF RECON,ioos:station:SCCF:56:1,2017-03-06T16:00:00Z,26.4645,-82.1044,1.532,31.77,1111122 
SCCF RECON,ioos:station:SCCF:56:1,2017-03-06T17:00:00Z,26.4645,-82.1044,1.51,31.85,1111122 
SCCF RECON,ioos:station:SCCF:56:1,2017-03-06T18:00:00Z,26.4645,-82.1044,1.5,31.73,1111122 
SCCF RECON,ioos:station:SCCF:56:1,2017-03-06T19:00:00Z,26.4645,-82.1044,1.538,32.01,1111122 
SCCF RECON,ioos:station:SCCF:56:1,2017-03-06T20:00:00Z,26.4645,-82.1044,1.581,31.89,1111122 
SCCF RECON,ioos:station:SCCF:56:1,2017-03-06T21:00:00Z,26.4645,-82.1044,1.678,31.8,1111122 
SCCF RECON,ioos:station:SCCF:56:1,2017-03-06T22:00:00Z,26.4645,-82.1044,1.75,31.84,1111122 
SCCF RECON,ioos:station:SCCF:56:1,2017-03-06T23:00:00Z,26.4645,-82.1044,1.801,31.98,1111122 
SCCF RECON,ioos:station:SCCF:56:1,2017-03-07T00:00:00Z,26.4645,-82.1044,1.838,32.06,1111122 
SCCF RECON,ioos:station:SCCF:56:1,2017-03-07T01:00:00Z,26.4645,-82.1044,1.847,32.07,1111122 
SCCF RECON,ioos:station:SCCF:56:1,2017-03-07T02:00:00Z,26.4645,-82.1044,1.81,32.05,1111122 
SCCF RECON,ioos:station:SCCF:56:1,2017-03-07T03:00:00Z,26.4645,-82.1044,1.69,31.98,1111122 
SCCF RECON,ioos:station:SCCF:56:1,2017-03-07T04:00:00Z,26.4645,-82.1044,1.563,32.1,1111122 
SCCF RECON,ioos:station:SCCF:56:1,2017-03-07T05:00:00Z,26.4645,-82.1044,1.44,32.25,1111122 
SCCF RECON,ioos:station:SCCF:56:1,2017-03-07T06:00:00Z,26.4645,-82.1044,1.319,32.43,1111122 
SCCF RECON,ioos:station:SCCF:56:1,2017-03-07T07:00:00Z,26.4645,-82.1044,1.209,32.62,1111122 
SCCF RECON,ioos:station:SCCF:56:1,2017-03-07T08:00:00Z,26.4645,-82.1044,1.135,32.81,1111122 
SCCF RECON,ioos:station:SCCF:56:1,2017-03-07T09:00:00Z,26.4645,-82.1044,1.12,32.9,1111122 
SCCF RECON,ioos:station:SCCF:56:1,2017-03-07T10:00:00Z,26.4645,-82.1044,1.24,32.28,1111122 
SCCF RECON,ioos:station:SCCF:56:1,2017-03-07T11:00:00Z,26.4645,-82.1044,1.37,32.47,1111122 
SCCF RECON,ioos:station:SCCF:56:1,2017-03-07T12:00:00Z,26.4645,-82.1044,1.47,32.48,1111122 
SCCF RECON,ioos:station:SCCF:56:1,2017-03-07T13:00:00Z,26.4645,-82.1044,1.563,32.7,1111122 
SCCF RECON,ioos:station:SCCF:56:1,2017-03-07T14:00:00Z,26.4645,-82.1044,1.649,32.74,1111122 
SCCF RECON,ioos:station:SCCF:56:1,2017-03-07T15:00:00Z,26.4645,-82.1044,1.668,32.58,1111122 
SCCF RECON,ioos:station:SCCF:56:1,2017-03-07T16:00:00Z,26.4645,-82.1044,1.638,32.8,1111122 
SCCF RECON,ioos:station:SCCF:56:1,2017-03-07T17:00:00Z,26.4645,-82.1044,1.605,32.7,1111122 
SCCF RECON,ioos:station:SCCF:56:1,2017-03-07T18:00:00Z,26.4645,-82.1044,1.565,32.68,1111122 
SCCF RECON,ioos:station:SCCF:56:1,2017-03-07T19:00:00Z,26.4645,-82.1044,1.564,32.69,1111122 
SCCF RECON,ioos:station:SCCF:56:1,2017-03-07T20:00:00Z,26.4645,-82.1044,1.61,32.8,1111122 
SCCF RECON,ioos:station:SCCF:56:1,2017-03-07T21:00:00Z,26.4645,-82.1044,1.649,32.76,1111122 
SCCF RECON,ioos:station:SCCF:56:1,2017-03-07T22:00:00Z,26.4645,-82.1044,1.675,32.78,1111122 
SCCF RECON,ioos:station:SCCF:56:1,2017-03-07T23:00:00Z,26.4645,-82.1044,1.709,32.81,1111122 
SCCF RECON,ioos:station:SCCF:56:1,2017-03-08T00:00:00Z,26.4645,-82.1044,1.77,32.96,1111122 
SCCF RECON,ioos:station:SCCF:56:1,2017-03-08T01:00:00Z,26.4645,-82.1044,1.83,32.85,1111122 
SCCF RECON,ioos:station:SCCF:56:1,2017-03-08T02:00:00Z,26.4645,-82.1044,1.867,33.01,1111122 
SCCF RECON,ioos:station:SCCF:56:1,2017-03-08T03:00:00Z,26.4645,-82.1044,1.878,33.05,1111122 
SCCF RECON,ioos:station:SCCF:56:1,2017-03-08T04:00:00Z,26.4645,-82.1044,1.789,32.92,1111122 
SCCF RECON,ioos:station:SCCF:56:1,2017-03-08T05:00:00Z,26.4645,-82.1044,1.659,32.9,1111122 
SCCF RECON,ioos:station:SCCF:56:1,2017-03-08T06:00:00Z,26.4645,-82.1044,1.515,32.84,1111122 
SCCF RECON,ioos:station:SCCF:56:1,2017-03-08T07:00:00Z,26.4645,-82.1044,1.364,32.84,1111122 
SCCF RECON,ioos:station:SCCF:56:1,2017-03-08T08:00:00Z,26.4645,-82.1044,1.24,32.89,1111122 
SCCF RECON,ioos:station:SCCF:56:1,2017-03-08T09:00:00Z,26.4645,-82.1044,1.134,32.99,1111122 
SCCF RECON,ioos:station:SCCF:56:1,2017-03-08T10:00:00Z,26.4645,-82.1044,1.096,33.09,1111122 
SCCF RECON,ioos:station:SCCF:56:1,2017-03-08T11:00:00Z,26.4645,-82.1044,1.18,33.05,1111122 
SCCF RECON,ioos:station:SCCF:56:1,2017-03-08T12:00:00Z,26.4645,-82.1044,1.33,32.99,1111122 
SCCF RECON,ioos:station:SCCF:56:1,2017-03-08T13:00:00Z,26.4645,-82.1044,1.468,32.9,1111122 
SCCF RECON,ioos:station:SCCF:56:1,2017-03-08T14:00:00Z,26.4645,-82.1044,1.559,32.88,1111122 
SCCF RECON,ioos:station:SCCF:56:1,2017-03-08T15:00:00Z,26.4645,-82.1044,1.61,32.96,1111122 
SCCF RECON,ioos:station:SCCF:56:1,2017-03-08T16:00:00Z,26.4645,-82.1044,1.607,32.88,1111122 
SCCF RECON,ioos:station:SCCF:56:1,2017-03-08T17:00:00Z,26.4645,-82.1044,1.598,32.84,1111122 
SCCF RECON,ioos:station:SCCF:56:1,2017-03-08T18:00:00Z,26.4645,-82.1044,1.578,32.87,1111122 
SCCF RECON,ioos:station:SCCF:56:1,2017-03-08T19:00:00Z,26.4645,-82.1044,1.536,32.91,1111122 
SCCF RECON,ioos:station:SCCF:56:1,2017-03-08T20:00:00Z,26.4645,-82.1044,1.489,32.93,1111122 
SCCF RECON,ioos:station:SCCF:56:1,2017-03-08T21:00:00Z,26.4645,-82.1044,1.47,32.95,1111122 
SCCF RECON,ioos:station:SCCF:56:1,2017-03-08T22:00:00Z,26.4645,-82.1044,1.478,32.96,1111122 
SCCF RECON,ioos:station:SCCF:56:1,2017-03-08T23:00:00Z,26.4645,-82.1044,1.538,32.91,1111122 
SCCF RECON,ioos:station:SCCF:56:1,2017-03-09T00:00:00Z,26.4645,-82.1044,1.607,32.78,1111122 
SCCF RECON,ioos:station:SCCF:56:1,2017-03-09T01:00:00Z,26.4645,-82.1044,1.697,32.73,1111122 
SCCF RECON,ioos:station:SCCF:56:1,2017-03-09T02:00:00Z,26.4645,-82.1044,1.789,32.77,1111122 
SCCF RECON,ioos:station:SCCF:56:1,2017-03-09T03:00:00Z,26.4645,-82.1044,1.835,32.82,1111122 
SCCF RECON,ioos:station:SCCF:56:1,2017-03-09T04:00:00Z,26.4645,-82.1044,1.834,32.87,1111122 
SCCF RECON,ioos:station:SCCF:56:1,2017-03-09T05:00:00Z,26.4645,-82.1044,1.759,32.88,1111122 
SCCF RECON,ioos:station:SCCF:56:1,2017-03-09T06:00:00Z,26.4645,-82.1044,1.639,32.84,1111122 
SCCF RECON,ioos:station:SCCF:56:1,2017-03-09T07:00:00Z,26.4645,-82.1044,1.49,32.92,1111122 
SCCF RECON,ioos:station:SCCF:56:1,2017-03-09T08:00:00Z,26.4645,-82.1044,1.349,33.0,1111122 
SCCF RECON,ioos:station:SCCF:56:1,2017-03-09T09:00:00Z,26.4645,-82.1044,1.216,33.04,1111122 
SCCF RECON,ioos:station:SCCF:56:1,2017-03-09T10:00:00Z,26.4645,-82.1044,1.12,33.1,1111122 
SCCF RECON,ioos:station:SCCF:56:1,2017-03-09T11:00:00Z,26.4645,-82.1044,1.073,33.31,1111122 
SCCF RECON,ioos:station:SCCF:56:1,2017-03-09T12:00:00Z,26.4645,-82.1044,1.13,33.3,1111122 
SCCF RECON,ioos:station:SCCF:56:1,2017-03-09T13:00:00Z,26.4645,-82.1044,1.3,33.11,1111122 
SCCF RECON,ioos:station:SCCF:56:1,2017-03-09T14:00:00Z,26.4645,-82.1044,1.432,32.89,1111122 
SCCF RECON,ioos:station:SCCF:56:1,2017-03-09T15:00:00Z,26.4645,-82.1044,1.529,32.82,1111122 
SCCF RECON,ioos:station:SCCF:56:1,2017-03-09T16:00:00Z,26.4645,-82.1044,1.618,32.74,1111122 
SCCF RECON,ioos:station:SCCF:56:1,2017-03-09T17:00:00Z,26.4645,-82.1044,1.65,32.73,1111122 
SCCF RECON,ioos:station:SCCF:56:1,2017-03-09T18:00:00Z,26.4645,-82.1044,1.611,32.68,1111122 
SCCF RECON,ioos:station:SCCF:56:1,2017-03-09T19:00:00Z,26.4645,-82.1044,1.52,32.83,1111122 
SCCF RECON,ioos:station:SCCF:56:1,2017-03-09T20:00:00Z,26.4645,-82.1044,1.421,32.93,1111122 
SCCF RECON,ioos:station:SCCF:56:1,2017-03-09T21:00:00Z,26.4645,-82.1044,1.342,32.98,1111122 
SCCF RECON,ioos:station:SCCF:56:1,2017-03-09T22:00:00Z,26.4645,-82.1044,1.301,33.06,1111122 
SCCF RECON,ioos:station:SCCF:56:1,2017-03-09T23:00:00Z,26.4645,-82.1044,1.33,33.05,1111122 
SCCF RECON,ioos:station:SCCF:56:1,2017-03-10T00:00:00Z,26.4645,-82.1044,1.449,32.8,1111122 
SCCF RECON,ioos:station:SCCF:56:1,2017-03-10T01:00:00Z,26.4645,-82.1044,1.56,32.79,1111122 
SCCF RECON,ioos:station:SCCF:56:1,2017-03-10T02:00:00Z,26.4645,-82.1044,1.68,32.75,1111122 
SCCF RECON,ioos:station:SCCF:56:1,2017-03-10T03:00:00Z,26.4645,-82.1044,1.745,32.74,1111122 
SCCF RECON,ioos:station:SCCF:56:1,2017-03-10T04:00:00Z,26.4645,-82.1044,1.799,32.74,1111122 
SCCF RECON,ioos:station:SCCF:56:1,2017-03-10T05:00:00Z,26.4645,-82.1044,1.8,32.73,1111122 
SCCF RECON,ioos:station:SCCF:56:1,2017-03-10T06:00:00Z,26.4645,-82.1044,1.719,32.71,1111122 
SCCF RECON,ioos:station:SCCF:56:1,2017-03-10T07:00:00Z,26.4645,-82.1044,1.56,32.79,1111122 
SCCF RECON,ioos:station:SCCF:56:1,2017-03-10T08:00:00Z,26.4645,-82.1044,1.417,32.92,1111122 
SCCF RECON,ioos:station:SCCF:56:1,2017-03-10T09:00:00Z,26.4645,-82.1044,1.28,33.01,1111122 
SCCF RECON,ioos:station:SCCF:56:1,2017-03-10T10:00:00Z,26.4645,-82.1044,1.157,33.05,1111122 
SCCF RECON,ioos:station:SCCF:56:1,2017-03-10T11:00:00Z,26.4645,-82.1044,1.06,33.24,1111122 
SCCF RECON,ioos:station:SCCF:56:1,2017-03-10T12:00:00Z,26.4645,-82.1044,1.06,33.34,1111122 
SCCF RECON,ioos:station:SCCF:56:1,2017-03-10T13:00:00Z,26.4645,-82.1044,1.21,33.21,1111122 
SCCF RECON,ioos:station:SCCF:56:1,2017-03-10T14:00:00Z,26.4645,-82.1044,1.393,32.93,1111122 
SCCF RECON,ioos:station:SCCF:56:1,2017-03-10T15:00:00Z,26.4645,-82.1044,1.52,32.85,1111122 
SCCF RECON,ioos:station:SCCF:56:1,2017-03-10T16:00:00Z,26.4645,-82.1044,1.63,32.81,1111122 
SCCF RECON,ioos:station:SCCF:56:1,2017-03-10T17:00:00Z,26.4645,-82.1044,1.7,32.7,1111122 
SCCF RECON,ioos:station:SCCF:56:1,2017-03-10T18:00:00Z,26.4645,-82.1044,1.68,32.68,1111122 
SCCF RECON,ioos:station:SCCF:56:1,2017-03-10T19:00:00Z,26.4645,-82.1044,1.59,32.75,1111122 
SCCF RECON,ioos:station:SCCF:56:1,2017-03-10T20:00:00Z,26.4645,-82.1044,1.47,32.87,1111122 
SCCF RECON,ioos:station:SCCF:56:1,2017-03-10T21:00:00Z,26.4645,-82.1044,1.382,32.93,1111122 
SCCF RECON,ioos:station:SCCF:56:1,2017-03-10T22:00:00Z,26.4645,-82.1044,1.321,33.01,1111122 
SCCF RECON,ioos:station:SCCF:56:1,2017-03-10T23:00:00Z,26.4645,-82.1044,1.259,33.09,1111122 
SCCF RECON,ioos:station:SCCF:56:1,2017-03-11T00:00:00Z,26.4645,-82.1044,1.247,33.16,1111122 
SCCF RECON,ioos:station:SCCF:56:1,2017-03-11T01:00:00Z,26.4645,-82.1044,1.338,32.81,1111122 
SCCF RECON,ioos:station:SCCF:56:1,2017-03-11T02:00:00Z,26.4645,-82.1044,1.5,32.87,1111122 
SCCF RECON,ioos:station:SCCF:56:1,2017-03-11T03:00:00Z,26.4645,-82.1044,1.66,32.86,1111122 
SCCF RECON,ioos:station:SCCF:56:1,2017-03-11T04:00:00Z,26.4645,-82.1044,1.768,32.81,1111122 
SCCF RECON,ioos:station:SCCF:56:1,2017-03-11T05:00:00Z,26.4645,-82.1044,1.82,32.66,1111122 
SCCF RECON,ioos:station:SCCF:56:1,2017-03-11T06:00:00Z,26.4645,-82.1044,1.788,32.71,1111122 
SCCF RECON,ioos:station:SCCF:56:1,2017-03-11T07:00:00Z,26.4645,-82.1044,1.65,32.74,1111122 
SCCF RECON,ioos:station:SCCF:56:1,2017-03-11T08:00:00Z,26.4645,-82.1044,1.48,32.88,1111122 
SCCF RECON,ioos:station:SCCF:56:1,2017-03-11T09:00:00Z,26.4645,-82.1044,1.36,33.0,1111122 
SCCF RECON,ioos:station:SCCF:56:1,2017-03-11T10:00:00Z,26.4645,-82.1044,1.228,33.09,1111122 
SCCF RECON,ioos:station:SCCF:56:1,2017-03-11T11:00:00Z,26.4645,-82.1044,1.117,33.2,1111122 
SCCF RECON,ioos:station:SCCF:56:1,2017-03-11T12:00:00Z,26.4645,-82.1044,1.031,33.35,1111122 
SCCF RECON,ioos:station:SCCF:56:1,2017-03-11T13:00:00Z,26.4645,-82.1044,1.051,33.36,1111122 
SCCF RECON,ioos:station:SCCF:56:1,2017-03-11T14:00:00Z,26.4645,-82.1044,1.195,32.92,1111122 
SCCF RECON,ioos:station:SCCF:56:1,2017-03-11T15:00:00Z,26.4645,-82.1044,1.359,32.75,1111122 
SCCF RECON,ioos:station:SCCF:56:1,2017-03-11T16:00:00Z,26.4645,-82.1044,1.49,32.72,1111122 
SCCF RECON,ioos:station:SCCF:56:1,2017-03-11T17:00:00Z,26.4645,-82.1044,1.57,32.65,1111122 